If you wish to contribute or participate in the discussions about articles you are invited to join SKYbrary as a registered user

 Actions

Rome/Fiumicino Airport

From SKYbrary Wiki

LIRF
Airport
ICAO: LIRF – IATA: FCO
Summary
Name Rome/Fiumicino Airport
Region Europe
Territory Italy IT.gif
Location Fiumicino, Lazio
Serving Rome
Elevation 3.962 m
13 ft
13 ft3.962 m
Coordinates 41° 48' 1.93" N, 12° 14' 34.61" E
Runways
Designator Length Width Surface ROPS
7/25 3309 m10,856.299 ft
45 m147.638 ft
ASP no/no
16C/34C 0 m0 ft
0 m0 ft
UNK yes/yes
16L/34R 3900 m12,795.276 ft
60 m196.85 ft
ASP yes/yes
16R/34L 3900 m12,795.276 ft
60 m196.85 ft
ASP yes/yes


METAR
Observation LIRF 010950Z 09005KT 8000 -SHRA FEW020TCU SCT035 11/10 Q1014 NOSIG
Station Roma Fiumicino
Date/Time 01 December 2020 09:50:00
Wind direction 90°
Wind speed 05 kts
Lowest cloud amount few clouds
Temperature 11°C
Dew point 10°C
Humidity 93%
QNH 1014 hPa
Weather condition n/a

Main international airport serving Rome.

Climatology

Dry-summer subtropical ”Mediterranean" climate (Köppen climate classification Csa) - characterized by hot, dry summers and mild winters. During the summer, subtropical high pressure cells dominate, making rainfall unlikely except for the occasional thunderstorm. In the winter, periodic storms bring rain (snow at higher elevations).

Maps

Terrain

Loading map...

Airport Layout

Loading map...


Accidents & Serious Incidents at or in vicinity of LIRF

None on SKYbrary